This demonstration page uses our WeatherBlox Daily Observations layout. Learn more.

Left ArrowRight Arrow

Hourly Observations for June 17, 2021

Temp ( °F °C ) Dew Point ( °F °C ) Humidity (%) Winds ( mph kmh ) Pressure ( in mb ) Visibility ( mi km ) Precip ( " mm )
12:53 am 00:53 Clear 79 26.1 37 2.8 22 22 N 7 11 29.84 1011 10 16 0.00 0.00
1:53 am 01:53 Clear 75 23.9 41 5 29 29 NNW 7 11 29.83 1010 10 16 0.00 0.00
2:53 am 02:53 Clear 75 23.9 43 6.1 32 32 VRB 5 7 29.83 1010 10 16 0.00 0.00
3:53 am 03:53 Clear 76 24.4 43 6.1 31 31 NW 6 9 29.82 1010 10 16 0.00 0.00
4:53 am 04:53 Clear 77 25 43 6.1 30 30 NW 7 11 29.82 1010 10 16 0.00 0.00
5:53 am 05:53 Sunny 76 24.4 44 6.7 32 32 NNW 6 9 29.82 1010 10 16 0.00 0.00
6:53 am 06:53 Sunny 79 26.1 44 6.7 29 29 NNW 8 13 29.83 1010 10 16 0.00 0.00
7:53 am 07:53 Sunny 84 28.9 45 7.2 25 25 NNW 8 13 29.83 1010 10 16 0.00 0.00
8:53 am 08:53 Sunny 88 31.1 41 5 19 19 N 14 22 29.82 1010 10 16 0.00 0.00
9:53 am 09:53 Sunny 91 32.8 41 5 17 17 NNW 13 20 29.81 1009 10 16 0.00 0.00
10:53 am 10:53 Sunny 94 34.4 41 5 16 16 NNW 13 20 29.80 1009 10 16 0.00 0.00
11:53 am 11:53 Sunny 99 37.2 41 5 14 14 NNW 8 13 29.77 1008 10 16 0.00 0.00
12:53 pm 12:53 Sunny 102 38.9 40 4.4 12 12 NNW 8 13 29.75 1008 10 16 0.00 0.00
1:53 pm 13:53 Sunny 104 40 31 -0.6 8 8 NNW 9 15 29.73 1007 10 16 0.00 0.00
2:53 pm 14:53 Sunny 106 41.1 28 -2.2 6 6 NW 7 11 29.71 1006 10 16 0.00 0.00
3:53 pm 15:53 Sunny 108 42.2 24 -4.4 5 5 N 9 15 29.69 1005 10 16 0.00 0.00
4:53 pm 16:53 Sunny 109 42.8 18 -7.8 4 4 VRB 3 6 29.67 1005 10 16 0.00 0.00
5:53 pm 17:53 Sunny 109 42.8 25 -3.9 5 5 N 9 15 29.65 1004 10 16 0.00 0.00
6:53 pm 18:53 Sunny 108 42.2 27 -2.8 6 6 NE 6 9 29.64 1004 10 16 0.00 0.00
7:53 pm 19:53 Sunny 106 41.1 31 -0.6 7 7 N 3 6 29.64 1004 10 16 0.00 0.00
8:53 pm 20:53 Clear 99 37.2 39 3.9 12 12 NW 3 6 29.65 1004 10 16 0.00 0.00
9:53 pm 21:53 Clear 95 35 44 6.7 17 17 NNW 6 9 29.67 1005 10 16 0.00 0.00
10:53 pm 22:53 Clear 92 33.3 42 5.6 18 18 NNW 6 9 29.70 1006 10 16 0.00 0.00
11:53 pm 23:53 Clear 85 29.4 44 6.7 24 24 N 3 6 29.70 1006 10 16 0.00 0.00

Powered by AerisWeather